| time (UTC) | temp C | wind direction | speed KPH | gust KPH | rain 1hr cm | rain 24hr cm | rain mn cm | humidity % | barometer mb |
| 20260504235051 | 23 | 207 | 4.8 | 14.5 | 0.00 | 0.00 | 0.00 | 53 | 1013.6 |
| 20260504234554 | 23 | 190 | 4.8 | 14.5 | 0.00 | 0.00 | 0.00 | 53 | 1013.7 |
| 20260504234050 | 23 | 190 | 1.6 | 16.1 | 0.00 | 0.00 | 0.00 | 53 | 1013.7 |
| 20260504233550 | 23 | 215 | 4.8 | 16.1 | 0.00 | 0.00 | 0.00 | 52 | 1013.9 |
| 20260504233055 | 23 | 197 | 4.8 | 16.1 | 0.00 | 0.00 | 0.00 | 52 | 1013.9 |
| 20260504232551 | 23 | 92 | 3.2 | 17.7 | 0.00 | 0.00 | 0.00 | 52 | 1013.8 |
| 20260504232050 | 23 | 253 | 6.4 | 17.7 | 0.00 | 0.00 | 0.00 | 50 | 1013.8 |
| 20260504231553 | 23 | 184 | 4.8 | 16.1 | 0.00 | 0.00 | 0.00 | 49 | 1014.0 |
| 20260504231050 | 23 | 177 | 6.4 | 14.5 | 0.00 | 0.00 | 0.00 | 49 | 1014.0 |
| 20260504230551 | 24 | 210 | 1.6 | 14.5 | 0.00 | 0.00 | 0.00 | 49 | 1014.1 |
| 20260504230105 | 24 | 216 | 4.8 | 14.5 | 0.00 | 0.00 | 0.00 | 48 | 1014.1 |
| 20260504225552 | 24 | 226 | 6.4 | 16.1 | 0.00 | 0.00 | 0.00 | 46 | 1014.0 |
| 20260504225051 | 24 | 211 | 4.8 | 17.7 | 0.00 | 0.00 | 0.00 | 45 | 1014.1 |
| 20260504224556 | 25 | 204 | 4.8 | 17.7 | 0.00 | 0.00 | 0.00 | 46 | 1014.1 |
| 20260504224051 | 25 | 197 | 1.6 | 14.5 | 0.00 | 0.00 | 0.00 | 43 | 1014.2 |
| 20260504223551 | 25 | 200 | 4.8 | 16.1 | 0.00 | 0.00 | 0.00 | 44 | 1014.4 |
| 20260504223056 | 25 | 95 | 4.8 | 16.1 | 0.00 | 0.00 | 0.00 | 43 | 1014.3 |
| 20260504222551 | 25 | 229 | 1.6 | 9.7 | 0.00 | 0.00 | 0.00 | 45 | 1014.3 |
| 20260504222050 | 24 | 165 | 4.8 | 12.9 | 0.00 | 0.00 | 0.00 | 44 | 1014.2 |
| 20260504221603 | 24 | 132 | 4.8 | 12.9 | 0.00 | 0.00 | 0.00 | 43 | 1014.4 |
| 20260504221050 | 24 | 205 | 6.4 | 12.9 | 0.00 | 0.00 | 0.00 | 42 | 1014.6 |
| 20260504220551 | 25 | 230 | 4.8 | 14.5 | 0.00 | 0.00 | 0.00 | 43 | 1014.6 |
| 20260504220059 | 25 | 169 | 4.8 | 14.5 | 0.00 | 0.00 | 0.00 | 42 | 1014.5 |
| 20260504215553 | 25 | 158 | 6.4 | 16.1 | 0.00 | 0.00 | 0.00 | 42 | 1014.5 |
| 20260504215053 | 25 | 236 | 6.4 | 16.1 | 0.00 | 0.00 | 0.00 | 43 | 1014.5 |
| 20260504214556 | 25 | 222 | 4.8 | 11.3 | 0.00 | 0.00 | 0.00 | 43 | 1014.4 |
| 20260504214050 | 25 | 167 | 3.2 | 14.5 | 0.00 | 0.00 | 0.00 | 43 | 1014.5 |
| 20260504213550 | 25 | 121 | 3.2 | 16.1 | 0.00 | 0.00 | 0.00 | 43 | 1014.5 |
| 20260504213054 | 25 | 205 | 3.2 | 16.1 | 0.00 | 0.00 | 0.00 | 43 | 1014.4 |
| 20260504212551 | 25 | 253 | 3.2 | 16.1 | 0.00 | 0.00 | 0.00 | 43 | 1014.5 |
| 20260504212053 | 25 | 169 | 4.8 | 16.1 | 0.00 | 0.00 | 0.00 | 43 | 1014.6 |
| 20260504211553 | 25 | 206 | 4.8 | 14.5 | 0.00 | 0.00 | 0.00 | 42 | 1014.7 |
| 20260504211051 | 25 | 192 | 4.8 | 12.9 | 0.00 | 0.00 | 0.00 | 41 | 1014.5 |
| 20260504210553 | 25 | 207 | 6.4 | 14.5 | 0.00 | 0.00 | 0.00 | 41 | 1014.5 |
| 20260504210055 | 25 | 140 | 4.8 | 14.5 | 0.00 | 0.00 | 0.00 | 41 | 1014.5 |
| 20260504205550 | 25 | 219 | 4.8 | 16.1 | 0.00 | 0.00 | 0.00 | 42 | 1014.5 |
| 20260504205051 | 25 | 224 | 8.0 | 16.1 | 0.00 | 0.00 | 0.00 | 40 | 1014.7 |
| 20260504204600 | 25 | 247 | 6.4 | 19.3 | 0.00 | 0.00 | 0.00 | 40 | 1014.9 |
| 20260504204051 | 25 | 182 | 6.4 | 19.3 | 0.00 | 0.00 | 0.00 | 40 | 1014.9 |
| 20260504203553 | 25 | 252 | 4.8 | 17.7 | 0.00 | 0.00 | 0.00 | 39 | 1015.0 |
| 20260504203101 | 25 | 172 | 4.8 | 24.1 | 0.00 | 0.00 | 0.00 | 41 | 1015.1 |
| 20260504202552 | 25 | 205 | 6.4 | 24.1 | 0.00 | 0.00 | 0.00 | 40 | 1015.1 |
| 20260504202052 | 25 | 119 | 9.7 | 24.1 | 0.00 | 0.00 | 0.00 | 40 | 1015.2 |
| 20260504201554 | 25 | 243 | 8.0 | 16.1 | 0.00 | 0.00 | 0.00 | 39 | 1015.3 |
| 20260504201055 | 25 | 198 | 4.8 | 12.9 | 0.00 | 0.00 | 0.00 | 40 | 1015.3 |
| 20260504200552 | 25 | 203 | 6.4 | 24.1 | 0.00 | 0.00 | 0.00 | 40 | 1015.4 |
| 20260504200056 | 25 | 261 | 8.0 | 24.1 | 0.00 | 0.00 | 0.00 | 40 | 1015.5 |
| 20260504195551 | 25 | 192 | 6.4 | 20.9 | 0.00 | 0.00 | 0.00 | 41 | 1015.7 |
| 20260504195052 | 25 | 151 | 3.2 | 20.9 | 0.00 | 0.00 | 0.00 | 42 | 1015.9 |
| 20260504194556 | 25 | 207 | 6.4 | 16.1 | 0.00 | 0.00 | 0.00 | 41 | 1015.8 |
| 20260504194052 | 25 | 184 | 6.4 | 22.5 | 0.00 | 0.00 | 0.00 | 41 | 1016.0 |
| 20260504193552 | 25 | 238 | 6.4 | 22.5 | 0.00 | 0.00 | 0.00 | 40 | 1016.0 |
| 20260504193054 | 25 | 196 | 9.7 | 22.5 | 0.00 | 0.00 | 0.00 | 41 | 1016.0 |
| 20260504192551 | 25 | 205 | 9.7 | 25.7 | 0.00 | 0.00 | 0.00 | 42 | 1016.1 |
| 20260504192054 | 25 | 215 | 8.0 | 25.7 | 0.00 | 0.00 | 0.00 | 44 | 1016.2 |
| 20260504191602 | 25 | 240 | 4.8 | 20.9 | 0.00 | 0.00 | 0.00 | 42 | 1016.0 |
| 20260504191051 | 25 | 262 | 4.8 | 20.9 | 0.00 | 0.00 | 0.00 | 43 | 1016.1 |
| 20260504190551 | 25 | 182 | 4.8 | 19.3 | 0.00 | 0.00 | 0.00 | 43 | 1016.2 |
| 20260504190100 | 25 | 196 | 8.0 | 19.3 | 0.00 | 0.00 | 0.00 | 43 | 1016.3 |
| 20260504185552 | 25 | 227 | 8.0 | 19.3 | 0.00 | 0.00 | 0.00 | 43 | 1016.4 |
| 20260504185052 | 25 | 262 | 8.0 | 19.3 | 0.00 | 0.00 | 0.00 | 43 | 1016.4 |
| 20260504184558 | 25 | 224 | 4.8 | 19.3 | 0.00 | 0.00 | 0.00 | 44 | 1016.4 |
| 20260504184052 | 25 | 241 | 8.0 | 17.7 | 0.00 | 0.00 | 0.00 | 45 | 1016.6 |
| 20260504183552 | 25 | 190 | 6.4 | 17.7 | 0.00 | 0.00 | 0.00 | 44 | 1016.6 |
| 20260504183059 | 25 | 224 | 6.4 | 19.3 | 0.00 | 0.00 | 0.00 | 44 | 1016.6 |
| 20260504182554 | 24 | 257 | 8.0 | 20.9 | 0.00 | 0.00 | 0.00 | 45 | 1016.7 |
| 20260504182054 | 24 | 252 | 6.4 | 22.5 | 0.00 | 0.00 | 0.00 | 44 | 1016.6 |
| 20260504181556 | 25 | 208 | 6.4 | 22.5 | 0.00 | 0.00 | 0.00 | 44 | 1016.7 |
| 20260504181052 | 25 | 242 | 4.8 | 17.7 | 0.00 | 0.00 | 0.00 | 44 | 1016.6 |
| 20260504180552 | 25 | 231 | 6.4 | 16.1 | 0.00 | 0.00 | 0.00 | 43 | 1016.6 |
| 20260504175555 | 25 | 168 | 1.6 | 12.9 | 0.00 | 0.00 | 0.00 | 44 | 1016.6 |
| 20260504175052 | 25 | 0 | 3.2 | 12.9 | 0.00 | 0.00 | 0.00 | 42 | 1016.7 |
| 20260504174552 | 25 | 180 | 3.2 | 11.3 | 0.00 | 0.00 | 0.00 | 43 | 1017.0 |
| 20260504174052 | 25 | 0 | 4.8 | 8.0 | 0.00 | 0.00 | 0.00 | 45 | 1017.0 |
| 20260504173553 | 25 | 131 | 1.6 | 17.7 | 0.00 | 0.00 | 0.00 | 43 | 1016.8 |
| 20260504173057 | 25 | 180 | 3.2 | 17.7 | 0.00 | 0.00 | 0.00 | 43 | 1016.9 |
| 20260504172552 | 25 | 222 | 3.2 | 12.9 | 0.00 | 0.00 | 0.00 | 43 | 1016.9 |
| 20260504172053 | 25 | 87 | 6.4 | 12.9 | 0.00 | 0.00 | 0.00 | 42 | 1016.7 |
| 20260504171555 | 25 | 188 | 4.8 | 14.5 | 0.00 | 0.00 | 0.00 | 41 | 1017.0 |
| 20260504171055 | 25 | 156 | 1.6 | 17.7 | 0.00 | 0.00 | 0.00 | 42 | 1017.0 |
| 20260504170555 | 24 | 132 | 4.8 | 19.3 | 0.00 | 0.00 | 0.00 | 43 | 1016.9 |
| 20260504151053 | 23 | 154 | 3.2 | 12.9 | 0.00 | 0.00 | 0.00 | 51 | 1017.6 |
| 20260504150553 | 23 | 195 | 1.6 | 9.7 | 0.00 | 0.00 | 0.00 | 50 | 1017.6 |
| 20260504141052 | 21 | 0 | 0.0 | 4.8 | 0.00 | 0.00 | 0.00 | 60 | 1017.6 |
| 20260504140552 | 21 | 0 | 0.0 | 4.8 | 0.00 | 0.00 | 0.00 | 59 | 1017.8 |
| 20260504130552 | 18 | 205 | 0.0 | 3.2 | 0.00 | 0.00 | 0.00 | 70 | 1017.7 |
| 20260504110554 | 13 | 0 | 0.0 | 0.0 | 0.00 | 0.00 | 0.00 | 84 | 1017.0 |
| 20260504100555 | 14 | 0 | 0.0 | 1.6 | 0.00 | 0.00 | 0.00 | 81 | 1017.1 |
| 20260504081555 | 15 | 0 | 0.0 | 0.0 | 0.00 | 0.00 | 0.00 | 80 | 1016.9 |
| 20260504081052 | 15 | 0 | 0.0 | 1.6 | 0.00 | 0.00 | 0.00 | 80 | 1017.1 |
| 20260504080552 | 15 | 0 | 0.0 | 3.2 | 0.00 | 0.00 | 0.00 | 79 | 1017.1 |
| 20260504050553 | 17 | 0 | 0.0 | 3.2 | 0.00 | 0.00 | 0.00 | 70 | 1018.6 |
| 20260504050108 | 17 | 0 | 0.0 | 3.2 | 0.00 | 0.00 | 0.00 | 70 | 1018.6 |
| 20260504045553 | 17 | 0 | 0.0 | 4.8 | 0.00 | 0.00 | 0.00 | 69 | 1018.6 |
| 20260504045052 | 17 | 0 | 1.6 | 4.8 | 0.00 | 0.00 | 0.00 | 69 | 1018.6 |
| 20260504044606 | 17 | 253 | 1.6 | 4.8 | 0.00 | 0.00 | 0.00 | 69 | 1018.7 |
| 20260504044053 | 17 | 253 | 0.0 | 6.4 | 0.00 | 0.00 | 0.00 | 70 | 1018.6 |
| 20260504043552 | 17 | 0 | 1.6 | 6.4 | 0.00 | 0.00 | 0.00 | 70 | 1018.8 |
| 20260504043055 | 17 | 0 | 1.6 | 6.4 | 0.00 | 0.00 | 0.00 | 70 | 1018.8 |
| 20260504042552 | 17 | 247 | 1.6 | 6.4 | 0.00 | 0.00 | 0.00 | 71 | 1018.8 |
| 20260504042052 | 17 | 221 | 1.6 | 6.4 | 0.00 | 0.00 | 0.00 | 71 | 1018.8 |
| 20260504041602 | 17 | 261 | 3.2 | 6.4 | 0.00 | 0.00 | 0.00 | 71 | 1018.8 |
| 20260504041053 | 18 | 211 | 1.6 | 4.8 | 0.00 | 0.00 | 0.00 | 71 | 1018.8 |
| 20260504040552 | 18 | 209 | 1.6 | 6.4 | 0.00 | 0.00 | 0.00 | 70 | 1018.8 |
| 20260504040104 | 18 | 209 | 1.6 | 6.4 | 0.00 | 0.00 | 0.00 | 69 | 1018.7 |
| 20260504035553 | 18 | 209 | 0.0 | 3.2 | 0.00 | 0.00 | 0.00 | 68 | 1018.6 |
| 20260504035053 | 18 | 0 | 0.0 | 6.4 | 0.00 | 0.00 | 0.00 | 67 | 1018.6 |
| 20260504034557 | 18 | 0 | 0.0 | 6.4 | 0.00 | 0.00 | 0.00 | 66 | 1018.7 |
| 20260504034057 | 18 | 0 | 1.6 | 4.8 | 0.00 | 0.00 | 0.00 | 66 | 1018.8 |
| 20260504033552 | 18 | 0 | 0.0 | 4.8 | 0.00 | 0.00 | 0.00 | 65 | 1018.7 |
| 20260504033054 | 18 | 0 | 0.0 | 4.8 | 0.00 | 0.00 | 0.00 | 65 | 1018.7 |
| 20260504032552 | 18 | 193 | 0.0 | 4.8 | 0.00 | 0.00 | 0.00 | 65 | 1018.7 |
| 20260504032052 | 18 | 0 | 0.0 | 4.8 | 0.00 | 0.00 | 0.00 | 65 | 1018.8 |
| 20260504031555 | 18 | 203 | 0.0 | 4.8 | 0.00 | 0.00 | 0.00 | 64 | 1018.8 |
| 20260504031052 | 18 | 203 | 0.0 | 3.2 | 0.00 | 0.00 | 0.00 | 64 | 1018.8 |
| 20260504030552 | 18 | 195 | 0.0 | 3.2 | 0.00 | 0.00 | 0.00 | 64 | 1018.8 |
| 20260504030055 | 18 | 0 | 0.0 | 3.2 | 0.00 | 0.00 | 0.00 | 64 | 1018.8 |
| 20260504025552 | 18 | 0 | 0.0 | 3.2 | 0.00 | 0.00 | 0.00 | 64 | 1018.8 |
| 20260504025052 | 18 | 0 | 0.0 | 3.2 | 0.00 | 0.00 | 0.00 | 64 | 1018.7 |
| 20260504024614 | 18 | 0 | 0.0 | 3.2 | 0.00 | 0.00 | 0.00 | 63 | 1018.6 |
| 20260504024053 | 18 | 0 | 0.0 | 3.2 | 0.00 | 0.00 | 0.00 | 61 | 1018.6 |
| 20260504023553 | 18 | 170 | 0.0 | 3.2 | 0.00 | 0.00 | 0.00 | 60 | 1018.5 |
| 20260504023054 | 19 | 170 | 0.0 | 3.2 | 0.00 | 0.00 | 0.00 | 59 | 1018.5 |
| 20260504022555 | 19 | 0 | 0.0 | 1.6 | 0.00 | 0.00 | 0.00 | 59 | 1018.5 |
| 20260504022052 | 19 | 0 | 0.0 | 1.6 | 0.00 | 0.00 | 0.00 | 58 | 1018.5 |
| 20260504021555 | 19 | 170 | 0.0 | 3.2 | 0.00 | 0.00 | 0.00 | 57 | 1018.4 |
| 20260504021052 | 19 | 0 | 0.0 | 3.2 | 0.00 | 0.00 | 0.00 | 57 | 1018.3 |
| 20260504020552 | 19 | 0 | 0.0 | 4.8 | 0.00 | 0.00 | 0.00 | 56 | 1018.3 |
| 20260504020054 | 19 | 0 | 0.0 | 4.8 | 0.00 | 0.00 | 0.00 | 57 | 1018.3 |
| 20260504015553 | 20 | 144 | 0.0 | 4.8 | 0.00 | 0.00 | 0.00 | 56 | 1018.2 |
| 20260504015053 | 20 | 129 | 1.6 | 4.8 | 0.00 | 0.00 | 0.00 | 55 | 1018.2 |
| 20260504014605 | 20 | 0 | 0.0 | 1.6 | 0.00 | 0.00 | 0.00 | 54 | 1018.2 |
| 20260504014052 | 20 | 0 | 0.0 | 3.2 | 0.00 | 0.00 | 0.00 | 54 | 1018.1 |
| 20260504013552 | 20 | 0 | 0.0 | 3.2 | 0.00 | 0.00 | 0.00 | 54 | 1018.0 |
| 20260504013056 | 20 | 0 | 1.6 | 3.2 | 0.00 | 0.00 | 0.00 | 54 | 1017.9 |
| 20260504012555 | 20 | 0 | 0.0 | 1.6 | 0.00 | 0.00 | 0.00 | 53 | 1017.9 |
| 20260504012051 | 21 | 0 | 0.0 | 1.6 | 0.00 | 0.00 | 0.00 | 53 | 1018.0 |
| 20260504011554 | 21 | 0 | 0.0 | 3.2 | 0.00 | 0.00 | 0.00 | 52 | 1017.9 |
| 20260504011051 | 21 | 0 | 0.0 | 3.2 | 0.00 | 0.00 | 0.00 | 50 | 1017.8 |
| 20260504010552 | 21 | 5 | 0.0 | 3.2 | 0.00 | 0.00 | 0.00 | 49 | 1017.8 |
| 20260504010104 | 21 | 0 | 0.0 | 1.6 | 0.00 | 0.00 | 0.00 | 50 | 1017.8 |
| 20260504005553 | 21 | 0 | 0.0 | 1.6 | 0.00 | 0.00 | 0.00 | 48 | 1017.8 |
| 20260504005053 | 22 | 0 | 0.0 | 0.0 | 0.00 | 0.00 | 0.00 | 46 | 1017.7 |
| 20260504004556 | 22 | 0 | 0.0 | 3.2 | 0.00 | 0.00 | 0.00 | 45 | 1017.7 |
| 20260504004052 | 22 | 0 | 0.0 | 3.2 | 0.00 | 0.00 | 0.00 | 44 | 1017.7 |
| 20260504003556 | 22 | 0 | 0.0 | 4.8 | 0.00 | 0.00 | 0.00 | 44 | 1017.6 |
| 20260504003056 | 22 | 336 | 0.0 | 6.4 | 0.00 | 0.00 | 0.00 | 43 | 1017.7 |
| 20260504002553 | 22 | 340 | 1.6 | 6.4 | 0.00 | 0.00 | 0.00 | 43 | 1017.6 |
| 20260504002052 | 22 | 336 | 1.6 | 6.4 | 0.00 | 0.00 | 0.00 | 43 | 1017.7 |
| 20260504001553 | 22 | 348 | 1.6 | 6.4 | 0.00 | 0.00 | 0.00 | 43 | 1017.5 |
| 20260504001052 | 22 | 355 | 1.6 | 6.4 | 0.00 | 0.00 | 0.00 | 42 | 1017.5 |
| 20260504000555 | 23 | 344 | 1.6 | 6.4 | 0.00 | 0.00 | 0.00 | 43 | 1017.6 |
| 20260504000137 | 23 | 327 | 1.6 | 6.4 | 0.00 | 0.00 | 0.00 | 43 | 1017.5 |
| 20260503235554 | 23 | 325 | 1.6 | 6.4 | 0.00 | 0.00 | 0.00 | 42 | 1017.5 |